Location: Dziadowski
(50.3833°N, 20.0333°E)
Time: 23:17:36
(UTC+00:00)

CZ-4C R/B - Visible Passes

Search period start: 18 April 2026 00:00
Search period end: 28 April 2026 00:00
Orbit: 477 x 1500 km, 63.4° (Epoch: 18 April)

Date Brightness Start Highest point End Pass type
(mag) Time Alt. Az. Time Alt. Az. Time Alt. Az.
18 Apr 1.7 01:13:01 50° SW 01:14:14 88° NW 01:19:47 10° NE visible
18 Apr 3.5 02:58:59 10° W 03:03:16 29° NNW 03:08:35 10° NE visible
18 Apr 3.0 23:56:40 31° ESE 23:56:40 31° ESE 00:00:39 10° NE visible
19 Apr 2.4 01:41:34 25° W 01:43:59 49° NW 01:49:36 10° NE visible
20 Apr 1.7 00:25:10 68° SE 00:25:20 69° SE 00:30:44 10° NE visible
20 Apr 3.3 02:10:04 12° W 02:14:02 33° NNW 02:19:28 10° NE visible
20 Apr 3.6 23:08:45 20° E 23:08:45 20° E 23:11:19 10° ENE visible
21 Apr 2.0 00:53:39 44° W 00:54:56 63° NW 01:00:34 10° NE visible
21 Apr 3.9 02:40:04 10° WNW 02:44:18 26° NNW 02:49:33 10° NE visible
21 Apr 2.4 23:37:12 45° E 23:37:12 45° E 23:41:37 10° NE visible
22 Apr 3.0 01:22:05 20° W 01:24:51 38° NNW 01:30:23 10° NE visible
22 Apr 4.1 22:20:44 13° E 22:20:44 13° E 22:21:42 10° ENE visible
23 Apr 1.6 00:05:37 76° WSW 00:05:56 82° NW 00:11:31 10° NE visible
23 Apr 3.7 01:50:47 10° WNW 01:55:03 28° NNW 02:00:21 10° NE visible
23 Apr 3.1 22:49:07 29° E 22:49:07 29° E 22:52:26 10° NE visible
24 Apr 2.6 00:34:00 32° W 00:35:43 47° NW 00:41:19 10° NE visible
24 Apr 4.1 02:21:07 10° WNW 02:25:24 24° N 02:30:37 10° NE visible
24 Apr 1.9 23:17:28 68° E 23:17:28 68° E 23:22:28 10° NE visible
25 Apr 3.5 01:02:21 15° W 01:05:48 32° NNW 01:11:12 10° NE visible
25 Apr 4.4 02:51:18 10° NW 02:55:49 24° N 03:01:18 10° ENE visible
25 Apr 3.6 22:00:53 19° E 22:00:53 19° E 22:03:08 10° ENE visible
25 Apr 2.1 23:45:46 50° W 23:46:38 59° NW 23:52:16 10° NE visible
26 Apr 4.0 01:31:50 10° WNW 01:36:05 26° N 01:41:19 10° NE visible
26 Apr 2.4 22:29:10 45° E 22:29:10 45° E 22:33:21 10° NE visible
27 Apr 3.2 00:14:03 22° W 00:16:36 37° NNW 00:22:06 10° NE visible
27 Apr 4.4 02:02:07 10° NW 02:06:29 24° N 02:11:49 10° NE visible
27 Apr 3.9 21:12:30 13° E 21:12:30 13° E 21:13:35 10° ENE visible
27 Apr 1.7 22:57:23 74° WNW 22:57:37 77° NW 23:03:13 10° NE visible
